Location: Newark
(44.6394°N, 22.2943°E)
Time: 04:32:34
(UTC+00:00)

BlueWalker 3 - Visible Passes

Search period start: 07 December 2022 00:00
Search period end: 17 December 2022 00:00
Orbit: 501 x 518 km, 53.2° (Epoch: 06 December)

Date Brightness Start Highest point End Pass type
(mag) Time Alt. Az. Time Alt. Az. Time Alt. Az.
07 Dec 2.8 16:09:13 10° NW 16:12:50 34° NNE 16:14:16 25° ENE visible
07 Dec 4.5 17:47:50 10° WNW 17:49:07 19° WNW 17:49:07 19° WNW visible
08 Dec 2.7 15:50:49 10° NW 15:54:26 35° NNE 15:56:59 17° E visible
08 Dec 3.6 17:29:27 10° WNW 17:31:51 33° W 17:31:51 33° W visible
09 Dec 2.6 15:32:23 10° NW 15:36:03 36° NNE 15:39:41 10° E visible
09 Dec 2.6 17:11:03 10° WNW 17:14:45 51° SW 17:14:45 51° SW visible
10 Dec 2.8 16:52:39 10° WNW 16:56:25 48° SW 16:57:54 30° SSE visible
11 Dec 3.0 16:34:15 10° WNW 16:37:59 45° SW 16:41:24 12° SSE visible
12 Dec 3.2 16:15:51 10° WNW 16:19:33 42° SW 16:23:13 10° SSE visible
13 Dec 3.4 15:57:26 10° WNW 16:01:06 39° SW 16:04:44 10° SSE visible
14 Dec 3.6 15:39:02 10° WNW 15:42:39 37° SW 15:46:15 10° SSE visible
15 Dec 3.9 15:20:37 10° WNW 15:24:12 35° SW 15:27:45 10° SSE visible
